Torna al catalogo

STARLINK-1420

AttivoComunicazioniVLEO
NORAD 45695·PAYLOAD·🇺🇸 United States

Lanciato Jun 4, 2020 da Cape Canaveral Space Force Station

Loading…

Prossimi Passaggi (prossime 24 ore)

TLE

AggiornatoSource: CelesTrak SupGP

Epoca: Sep 15, 2026, 01:46 UTC

1 45695C 20035AQ  26258.07409722  .00148410  00000+0  58638-3 0  2581
2 45695  53.0364 166.2034 0005902  99.4429 212.5008 15.85971379    11

Traccia STARLINK-1420 in tempo reale con AllMySat

Download on the App Store